User: anonymous   Login
Location: Unspecified
(0.0000°N, 0.0000°E)
Time: 01:58:45
(UTC+00:00)
Language:

STPSAT 1 - Orbit

View from above orbital plane
View from above orbital plane
View from above satellite
View from above satellite

Ground track
Ground track

The orbit data is extracted from the following two-line orbital elements,

1 30775U 07006D   17147.75770126 +.00001686 +00000-0 +68218-4 0  9990
2 30775 035.4292 260.4251 0002135 090.9044 269.1923 15.24884405564453
Epoch (UTC): 27 May 2017 18:11:05
Eccentricity: 0.0002135
inclination: 35.4292°
perigee height: 489 km
apogee height: 492 km
right ascension of ascending node: 260.4251°
argument of perigee: 90.9044°
revolutions per day: 15.24884405
mean anomaly at epoch: 269.1923°
orbit number at epoch: 56445

The dashed part of the orbit path shows where the satellite is in the earth's shadow,  

DLR